Location: Antichan
(42.9728°N, 0.6667°E)
Time: 09:55:06
(UTC+00:00)

SPOT 3 Rocket - Pass Details

Date: 15 August 2020
Orbit: 778 x 795 km, 98.8° (Epoch: 19 September)

Event Time Altitude Azimuth Distance (km) Brightness Sun altitude
Exits shadow 20:41:00 11° 183° (S) 2,305 5.6 -17.1°
Maximum altitude 20:45:56 53° 259° (W) 968 4.2 -17.8°
Drops below altitude 10° 20:51:01 10° 337° (NNW) 2,357 7.0 -18.5°
Sets 20:53:25 0° 342° (NNW) 3,287 7.8 -18.8°
